Location: Drocourt
(49.0571°N, 1.7669°E)
Time: 03:29:18
(UTC+00:00)

Transit 4A - Pass Details

Date: 18 April 2024
Orbit: 871 x 971 km, 66.8° (Epoch: 19 May)

Event Time Altitude Azimuth Distance (km) Brightness Sun altitude
Rises 14:47:08 0° 248° (WSW) 3,523 11.9 37.6°
Reaches altitude 10° 14:49:56 10° 258° (WSW) 2,569 11.4 37.2°
Maximum altitude 14:55:14 33° 322° (NW) 1,457 9.4 36.5°
Drops below altitude 10° 15:00:29 10° 25° (NNE) 2,538 9.9 35.7°
Sets 15:03:14 0° 35° (NE) 3,473 10.5 35.3°
